{"data":{"norad_id":49164,"intl_designator":"2021-082AL","name":"STARLINK-3106","alt_names":[],"object_type":"PAYLOAD","status":"ACTIVE","operator":null,"country":"US","launch_date":"2021-09-14","launch_site_code":"AFWTR","launch_vehicle":null,"mission":null,"orbit_class":"UNKNOWN","rcs_meters":null,"size_class":null,"mass_kg":null,"dimensions":null,"purposes":["comms"],"wikipedia_slug":null,"has_3d_model":false,"image_url":null,"decayed_at":null,"tle_current":{"epoch":"2026-09-20T01:02:52.788192Z","epoch_age_seconds":80799,"freshness":"FRESH","line1":"1 49164U 21082AL  26263.04366653  .00000883  00000+0  81766-4 0  9999","line2":"2 49164  69.9990 144.4171 0003117 273.6843  86.3959 14.98338562276740","mean_motion":14.98338562,"eccentricity":0.0003117,"inclination_deg":69.999,"raan_deg":144.4171,"arg_perigee_deg":273.6843,"mean_anomaly_deg":86.3959,"bstar":8.1766e-5,"rev_number":27674,"period_min":96.106449938649,"perigee_km":569.8630469206,"apogee_km":574.19578066296,"semimajor_km":6950.1664137918,"source":"CELESTRAK","updated_at":"2026-09-20T09:00:39.252309Z"}}}